Precipitable_Water
0.63 0.63 0.65 0.63 0.61 0.60 0.56 0.54 0.55 0.57 0.56 0.54 0.54 0.56 0.57 0.56 0.51 0.42 0.25 0.29 0.34 0.39 0.43 0.38 0.33 0.27 0.27 0.23 0.25 0.28 0.21 0.16 0.16 0.15 0.16 0.18 0.18 0.26 0.24 0.23 0.24 0.39 0.48 0.54 0.70
0.67 0.66 0.64 0.63 0.60 0.56 0.54 0.54 0.55 0.57 0.54 0.53 0.55 0.58 0.58 0.58 0.45 0.26 0.32 0.34 0.37 0.43 0.36 0.33 0.28 0.30 0.25 0.27 0.29 0.23 0.18 0.17 0.20 0.19 0.18 0.19 0.19 0.19 0.18 0.19 0.27 0.37 0.64 0.75 0.74
0.68 0.66 0.62 0.59 0.57 0.55 0.54 0.54 0.55 0.56 0.52 0.51 0.57 0.56 0.59 0.62 0.40 0.28 0.34 0.33 0.40 0.44 0.41 0.38 0.35 0.31 0.24 0.26 0.27 0.24 0.20 0.23 0.21 0.19 0.18 0.19 0.20 0.23 0.21 0.20 0.32 0.33 0.45 0.60 0.66
0.64 0.62 0.61 0.58 0.57 0.55 0.55 0.54 0.56 0.56 0.50 0.51 0.56 0.60 0.61 0.53 0.19 0.33 0.39 0.42 0.44 0.44 0.38 0.33 0.32 0.28 0.21 0.20 0.23 0.17 0.17 0.19 0.18 0.17 0.17 0.18 0.21 0.21 0.20 0.23 0.27 0.31 0.42 0.46 0.44
0.64 0.61 0.58 0.57 0.55 0.55 0.56 0.56 0.54 0.54 0.52 0.51 0.57 0.58 0.52 0.36 0.30 0.42 0.47 0.49 0.48 0.43 0.36 0.32 0.29 0.28 0.22 0.24 0.26 0.20 0.20 0.23 0.24 0.26 0.23 0.22 0.21 0.22 0.23 0.24 0.25 0.26 0.29 0.35 0.39
0.63 0.60 0.57 0.56 0.56 0.56 0.56 0.53 0.53 0.54 0.56 0.57 0.60 0.61 0.46 0.24 0.44 0.47 0.44 0.46 0.43 0.37 0.30 0.32 0.31 0.33 0.27 0.23 0.27 0.26 0.28 0.29 0.31 0.28 0.26 0.20 0.25 0.27 0.25 0.28 0.28 0.28 0.25 0.29 0.37
0.61 0.60 0.59 0.57 0.56 0.55 0.52 0.51 0.52 0.55 0.58 0.61 0.63 0.59 0.44 0.29 0.46 0.47 0.47 0.41 0.40 0.35 0.28 0.30 0.38 0.34 0.39 0.35 0.34 0.33 0.29 0.33 0.32 0.28 0.25 0.25 0.19 0.22 0.28 0.31 0.29 0.30 0.31 0.33 0.32
0.61 0.60 0.59 0.59 0.58 0.56 0.55 0.55 0.54 0.54 0.56 0.62 0.65 0.59 0.24 0.44 0.47 0.43 0.45 0.41 0.39 0.37 0.34 0.37 0.40 0.37 0.38 0.39 0.37 0.31 0.29 0.23 0.29 0.31 0.28 0.24 0.16 0.22 0.27 0.30 0.28 0.29 0.32 0.34 0.36
0.62 0.61 0.61 0.61 0.59 0.57 0.57 0.56 0.54 0.53 0.55 0.63 0.58 0.52 0.28 0.44 0.35 0.39 0.43 0.32 0.37 0.40 0.45 0.48 0.41 0.33 0.32 0.26 0.27 0.27 0.19 0.22 0.27 0.30 0.28 0.26 0.22 0.27 0.29 0.29 0.29 0.29 0.30 0.32 0.34
0.60 0.61 0.61 0.61 0.60 0.58 0.56 0.54 0.52 0.50 0.55 0.56 0.51 0.42 0.35 0.30 0.32 0.36 0.36 0.34 0.35 0.38 0.36 0.38 0.35 0.31 0.28 0.16 0.10 0.13 0.18 0.24 0.26 0.30 0.30 0.25 0.23 0.27 0.31 0.31 0.29 0.29 0.31 0.32 0.33
0.57 0.57 0.58 0.58 0.59 0.56 0.56 0.61 0.46 0.37 0.45 0.32 0.31 0.31 0.30 0.31 0.36 0.30 0.27 0.32 0.34 0.33 0.25 0.26 0.28 0.22 0.18 0.22 0.22 0.18 0.19 0.22 0.27 0.28 0.26 0.23 0.24 0.27 0.32 0.28 0.27 0.28 0.30 0.32 0.34
0.54 0.55 0.55 0.55 0.55 0.63 0.72 0.63 0.61 0.57 0.26 0.34 0.28 0.27 0.26 0.30 0.25 0.27 0.24 0.24 0.22 0.19 0.22 0.23 0.22 0.29 0.24 0.24 0.21 0.17 0.20 0.23 0.25 0.28 0.29 0.27 0.25 0.29 0.30 0.29 0.28 0.25 0.26 0.29 0.33
0.52 0.53 0.54 0.54 0.53 0.62 0.50 0.53 0.72 0.60 0.39 0.23 0.26 0.25 0.26 0.28 0.21 0.23 0.22 0.24 0.20 0.20 0.19 0.18 0.25 0.27 0.21 0.23 0.21 0.17 0.22 0.22 0.22 0.28 0.30 0.27 0.22 0.25 0.29 0.31 0.34 0.34 0.36 0.35 0.36
0.51 0.52 0.54 0.54 0.44 0.57 0.50 0.54 0.62 0.68 0.30 0.26 0.27 0.31 0.29 0.31 0.27 0.35 0.29 0.28 0.29 0.20 0.15 0.22 0.27 0.22 0.20 0.24 0.25 0.16 0.24 0.25 0.27 0.27 0.20 0.33 0.18 0.25 0.28 0.30 0.33 0.35 0.39 0.41 0.42
0.52 0.54 0.55 0.60 0.63 0.46 0.58 0.55 0.61 0.56 0.18 0.31 0.29 0.36 0.33 0.26 0.28 0.32 0.38 0.30 0.20 0.19 0.21 0.24 0.21 0.19 0.20 0.23 0.24 0.23 0.31 0.29 0.30 0.28 0.29 0.31 0.26 0.25 0.31 0.29 0.33 0.38 0.41 0.44 0.48
0.62 0.58 0.62 0.60 0.63 0.65 0.66 0.59 0.52 0.35 0.18 0.28 0.30 0.29 0.33 0.35 0.32 0.35 0.39 0.41 0.35 0.30 0.29 0.26 0.31 0.30 0.29 0.29 0.33 0.34 0.31 0.27 0.32 0.30 0.24 0.29 0.28 0.26 0.28 0.33 0.37 0.42 0.45 0.47 0.48
0.74 0.73 0.65 0.71 0.56 0.71 0.67 0.56 0.38 0.28 0.37 0.30 0.31 0.31 0.31 0.33 0.33 0.32 0.35 0.35 0.30 0.23 0.26 0.31 0.29 0.33 0.37 0.30 0.33 0.32 0.28 0.18 0.17 0.22 0.21 0.32 0.27 0.26 0.39 0.40 0.41 0.42 0.44 0.47 0.52
0.77 0.79 0.79 0.72 0.77 0.74 0.65 0.48 0.30 0.37 0.31 0.38 0.34 0.31 0.30 0.33 0.34 0.34 0.37 0.33 0.40 0.33 0.30 0.28 0.25 0.34 0.39 0.35 0.29 0.33 0.32 0.26 0.17 0.18 0.21 0.29 0.23 0.29 0.41 0.46 0.52 0.53 0.54 0.55 0.56
0.82 0.80 0.69 0.71 0.75 0.74 0.61 0.37 0.33 0.34 0.38 0.34 0.33 0.31 0.34 0.36 0.33 0.37 0.37 0.36 0.40 0.39 0.27 0.27 0.28 0.41 0.41 0.42 0.42 0.36 0.34 0.41 0.31 0.32 0.27 0.29 0.32 0.36 0.45 0.48 0.51 0.56 0.59 0.60 0.62
0.79 0.80 0.58 0.79 0.75 0.81 0.57 0.36 0.39 0.43 0.39 0.38 0.32 0.35 0.33 0.36 0.36 0.37 0.38 0.44 0.42 0.47 0.46 0.40 0.26 0.40 0.44 0.47 0.48 0.43 0.44 0.32 0.36 0.24 0.22 0.27 0.28 0.30 0.39 0.41 0.46 0.53 0.56 0.60 0.64
0.90 0.71 0.67 0.79 0.83 0.68 0.45 0.41 0.42 0.43 0.45 0.42 0.40 0.38 0.39 0.37 0.40 0.39 0.40 0.47 0.49 0.43 0.49 0.47 0.39 0.34 0.40 0.41 0.41 0.40 0.37 0.43 0.43 0.40 0.30 0.27 0.30 0.45 0.43 0.48 0.51 0.55 0.59 0.62 0.63
0.82 0.58 0.70 0.90 0.56 0.60 0.45 0.47 0.49 0.47 0.51 0.47 0.48 0.45 0.42 0.44 0.41 0.40 0.40 0.45 0.54 0.48 0.43 0.48 0.39 0.31 0.34 0.47 0.51 0.46 0.44 0.44 0.35 0.34 0.37 0.36 0.30 0.48 0.50 0.53 0.51 0.56 0.62 0.63 0.64
0.63 0.61 0.77 0.85 0.47 0.43 0.48 0.47 0.52 0.51 0.51 0.50 0.46 0.48 0.48 0.44 0.39 0.45 0.46 0.56 0.55 0.52 0.46 0.48 0.38 0.27 0.29 0.40 0.49 0.45 0.44 0.43 0.44 0.41 0.31 0.30 0.30 0.50 0.52 0.51 0.56 0.57 0.58 0.61 0.64
0.63 0.45 0.58 0.68 0.66 0.50 0.46 0.46 0.45 0.54 0.51 0.53 0.51 0.53 0.50 0.47 0.52 0.44 0.45 0.55 0.58 0.55 0.57 0.53 0.40 0.34 0.25 0.30 0.42 0.37 0.38 0.39 0.40 0.31 0.31 0.34 0.35 0.42 0.48 0.51 0.54 0.55 0.58 0.61 0.62
0.56 0.46 0.55 0.43 0.51 0.54 0.53 0.49 0.46 0.47 0.54 0.52 0.52 0.51 0.47 0.41 0.43 0.44 0.49 0.48 0.51 0.53 0.51 0.47 0.31 0.37 0.38 0.42 0.43 0.41 0.38 0.37 0.37 0.39 0.34 0.34 0.39 0.43 0.50 0.52 0.55 0.58 0.60 0.58 0.60
0.54 0.49 0.49 0.45 0.48 0.46 0.41 0.42 0.43 0.45 0.43 0.44 0.41 0.47 0.48 0.42 0.45 0.39 0.44 0.42 0.39 0.43 0.42 0.50 0.36 0.41 0.34 0.39 0.43 0.40 0.37 0.38 0.42 0.43 0.40 0.40 0.39 0.52 0.55 0.59 0.56 0.57 0.58 0.59 0.61
0.64 0.61 0.53 0.41 0.40 0.39 0.40 0.42 0.42 0.45 0.47 0.46 0.44 0.41 0.40 0.44 0.50 0.52 0.51 0.48 0.45 0.41 0.39 0.42 0.40 0.37 0.29 0.41 0.42 0.33 0.32 0.37 0.41 0.43 0.41 0.36 0.46 0.56 0.55 0.57 0.59 0.62 0.63 0.60 0.61
Wind_Speed
8 9 9 10 10 10 11 11 11 10 10 10 10 11 11 12 12 12 12 10 9 9 8 7 7 6 5 4 2 4 3 4 4 6 5 4 4 3 5 4 6 6 5 4 4
8 10 11 11 12 12 13 13 13 12 12 13 14 14 14 15 15 15 14 13 12 11 11 10 9 7 7 6 8 10 8 6 4 4 4 7 6 4 6 6 3 3 4 2 1
11 12 13 14 15 16 16 16 15 14 14 15 15 15 15 15 15 16 15 15 15 15 13 10 9 8 9 7 7 8 8 6 6 6 4 5 7 7 6 5 7 3 3 2 2
13 15 16 18 18 18 18 17 16 15 15 15 14 14 13 14 15 14 15 14 14 13 13 12 11 13 11 11 10 11 11 10 8 9 6 6 5 5 5 4 3 3 1 2 3
16 18 19 20 20 20 18 17 16 15 14 13 12 11 13 14 15 13 13 11 10 9 11 13 13 12 11 9 9 9 7 7 6 5 5 5 5 4 4 4 3 3 2 2 3
18 20 21 21 20 19 17 16 15 14 14 12 10 9 9 11 9 10 10 11 12 14 12 11 10 9 8 9 9 6 4 3 3 4 6 5 6 6 6 3 2 3 4 6 6
19 20 20 20 19 17 16 15 14 14 12 11 10 9 9 9 8 8 7 10 10 11 11 10 9 8 8 8 7 5 5 4 3 4 6 7 7 6 6 1 3 6 6 6 8
19 19 19 18 17 15 14 13 12 11 10 9 8 8 7 6 7 7 8 7 8 9 9 9 7 8 6 6 5 5 5 6 4 4 5 5 7 9 9 5 7 8 9 9 9
18 17 17 16 15 14 13 11 10 9 8 7 6 5 4 4 5 5 5 5 6 5 3 5 6 4 7 6 6 7 7 8 8 4 5 7 10 12 11 9 11 11 10 10 10
16 15 14 14 13 12 10 9 7 6 5 3 2 3 3 3 3 4 6 5 4 5 5 3 3 3 7 9 6 8 8 8 8 9 11 12 12 12 11 12 10 9 9 10 9
13 13 12 12 11 9 7 5 4 3 3 3 2 3 4 3 3 5 7 6 5 4 4 3 5 4 7 6 6 9 9 8 9 13 14 12 13 12 10 5 7 6 6 7 9
11 10 10 9 8 7 5 4 3 3 1 0 1 1 2 4 5 8 8 5 5 5 4 6 2 5 7 8 8 10 9 9 10 15 13 14 15 11 4 5 5 5 5 6 8
9 9 8 8 7 7 4 5 4 3 3 2 3 3 5 6 5 8 8 6 4 6 5 5 3 7 8 8 9 10 8 11 12 16 13 12 12 5 6 5 7 8 8 8 9
7 8 9 8 7 7 5 5 5 4 4 5 6 6 7 6 5 5 7 5 5 4 5 3 3 7 9 6 9 11 12 14 15 13 10 11 9 12 7 9 10 9 8 11 13
5 7 9 9 8 7 7 6 6 6 4 6 6 7 6 3 6 6 6 5 6 7 4 6 6 8 8 10 11 11 13 17 16 12 10 12 7 9 10 12 12 11 11 13 16
2 4 6 8 8 8 8 7 6 5 7 5 6 6 6 5 5 7 6 8 6 7 7 8 6 6 10 11 11 13 14 15 11 6 6 11 8 9 14 10 11 12 14 16 20
2 2 4 5 6 6 6 5 4 4 6 5 4 5 5 6 6 8 7 7 7 7 8 10 6 7 10 11 12 14 13 10 8 8 7 14 14 12 16 9 9 13 17 21 23
2 2 3 3 4 4 4 3 3 4 2 5 6 7 5 8 6 8 5 6 8 9 9 9 10 10 11 9 11 11 10 7 9 10 15 16 10 10 15 7 14 19 20 20 24
3 3 2 3 4 5 3 2 5 5 6 7 8 8 6 6 6 7 6 8 8 9 8 10 10 12 9 10 9 12 11 13 12 14 13 13 13 19 9 20 22 18 21 25 29
4 4 1 2 4 3 3 4 3 4 6 6 5 5 4 5 7 7 6 8 6 8 9 9 11 10 11 12 10 9 13 13 14 14 16 16 18 16 20 26 25 22 29 28 27
4 4 2 3 3 2 2 2 2 3 4 4 4 3 3 5 7 6 5 6 7 11 11 9 7 12 13 9 12 11 12 14 16 14 16 19 18 20 30 28 27 33 30 29 28
3 4 3 3 3 3 2 3 3 2 3 3 3 3 5 5 7 6 5 6 9 10 8 10 10 11 16 18 14 11 15 17 16 20 20 23 28 26 25 28 36 34 26 28 29
3 4 4 3 3 4 3 3 2 4 4 4 4 5 6 6 6 7 8 8 9 10 10 12 12 13 15 12 14 15 22 24 24 22 24 23 27 30 33 33 29 26 28 31 34
5 5 5 4 5 4 4 5 4 5 5 6 6 7 7 7 8 9 11 9 11 13 11 12 13 12 14 17 21 24 27 29 25 23 28 27 36 32 33 28 27 30 33 35 35
6 7 6 5 5 3 4 6 5 6 6 7 8 7 8 9 11 11 13 15 16 13 14 14 15 18 20 22 25 28 30 30 29 29 29 35 32 31 29 26 29 32 34 34 36
7 7 7 7 7 5 6 7 7 6 8 7 9 10 10 10 11 14 15 16 17 17 18 19 20 19 22 25 26 26 30 31 29 26 27 29 34 29 27 30 34 34 35 38 41
10 9 9 10 9 8 10 10 8 9 11 11 12 13 14 15 15 17 18 20 21 21 20 21 20 20 26 22 23 25 23 22 23 28 28 27 27 31 33 35 37 39 38 43 45
Wind_Direction
178 178 175 172 168 156 150 142 135 126 113 97 89 80 70 62 59 68 68 68 68 58 63 62 74 81 105 102 40 354 54 100 59 54 31 8 28 347 341 306 308 310 292 284 250
168 165 159 154 148 144 139 136 132 123 114 103 95 83 77 67 71 71 69 68 70 70 70 70 69 68 97 81 55 67 87 77 76 48 29 28 27 4 5 10 340 18 41 85 7
146 146 143 140 137 135 132 130 129 123 116 108 99 89 77 69 79 72 73 76 74 71 74 69 66 66 80 74 62 68 78 63 52 42 33 23 27 34 38 33 58 71 74 66 39
135 134 133 132 131 129 128 126 125 121 119 111 99 86 76 76 84 76 77 74 68 65 65 63 61 74 87 81 72 78 74 74 62 58 53 35 10 1 7 18 22 22 6 355 344
129 130 130 130 129 127 125 123 120 119 118 112 104 88 83 81 81 80 74 61 57 57 61 58 69 72 77 72 67 75 81 71 70 56 34 11 350 334 318 331 360 10 349 317 309
128 130 129 129 128 126 124 121 117 114 116 112 103 90 91 86 82 76 64 57 58 61 62 61 66 63 63 66 63 53 41 63 31 17 6 358 331 326 310 308 331 341 315 299 292
129 130 130 129 128 126 123 119 116 114 112 108 100 90 97 94 71 65 69 58 57 56 57 60 58 57 62 63 53 32 25 340 333 343 353 1 342 339 302 275 289 299 301 300 287
131 132 132 132 132 129 126 122 119 114 113 108 99 94 92 90 71 58 53 66 51 53 57 61 52 49 49 29 23 18 24 43 330 315 330 360 320 327 334 266 287 291 293 290 289
135 136 136 136 134 131 129 126 121 117 118 113 97 89 95 75 53 42 37 28 15 28 39 33 24 35 37 24 28 31 12 5 351 17 333 323 313 320 310 290 285 282 287 291 291
139 140 142 141 139 137 135 132 129 121 118 116 120 69 69 57 34 8 358 346 342 349 344 357 16 29 26 25 17 349 348 338 350 337 335 322 310 312 306 306 316 305 296 301 306
146 146 149 150 149 146 142 146 140 136 141 94 78 85 45 4 337 356 347 330 318 322 346 350 27 32 3 351 346 346 331 330 331 336 332 319 308 303 313 334 352 344 336 332 324
157 159 162 166 169 174 179 176 171 178 203 213 102 36 331 329 320 339 344 349 342 333 343 355 16 353 337 333 353 341 333 334 324 331 325 319 313 296 280 311 321 341 342 335 328
173 178 181 185 195 197 198 201 202 230 235 250 279 302 314 314 314 327 337 322 308 336 347 340 348 339 333 343 345 335 341 327 318 324 321 336 325 340 312 305 313 310 307 316 320
187 195 198 202 205 209 215 215 229 249 257 252 275 293 305 300 295 318 334 322 309 324 315 309 323 342 332 333 339 322 328 320 312 322 317 335 314 313 298 298 295 293 295 299 314
184 202 209 210 218 217 226 235 253 254 274 275 290 289 298 318 304 304 323 314 320 300 306 292 323 327 330 322 321 304 318 309 302 297 312 325 324 323 324 303 293 292 302 306 308
166 195 210 214 224 229 235 246 251 265 266 270 277 285 279 311 306 305 302 311 301 297 286 286 303 320 322 318 314 313 320 315 317 313 325 327 336 311 321 311 298 301 304 307 309
135 150 179 195 203 214 223 231 256 250 261 272 278 289 287 305 304 307 306 345 322 316 309 306 290 311 321 320 325 334 332 324 326 323 291 335 320 304 328 318 302 301 301 301 307
177 167 159 187 205 209 208 229 250 272 290 262 285 274 290 307 293 304 310 305 329 320 298 310 305 326 323 327 322 323 334 330 313 308 302 313 301 309 325 345 326 308 307 310 314
196 182 193 218 208 201 210 251 235 282 290 292 279 288 278 297 291 305 308 311 313 323 310 313 294 315 316 318 325 322 335 314 310 307 314 303 311 322 300 315 323 316 315 313 313
198 191 223 210 189 210 239 253 262 288 298 281 297 299 310 324 321 320 306 316 300 323 317 301 302 303 311 311 308 312 320 328 320 314 306 304 309 304 310 318 315 306 310 308 307
197 196 240 194 203 233 234 255 258 298 308 308 313 306 319 314 315 322 327 327 328 319 317 317 303 303 317 301 313 314 321 322 315 306 302 307 303 313 310 309 309 312 314 316 315
220 212 242 219 227 248 254 287 267 277 303 296 309 313 309 326 315 328 309 314 319 319 315 313 297 301 301 298 294 311 321 319 311 303 298 297 298 305 306 308 309 310 312 314 314
233 215 232 236 233 256 242 258 294 302 308 310 294 307 299 303 307 318 311 305 314 315 307 312 304 308 315 315 313 309 315 314 308 302 295 298 300 312 310 307 312 313 315 313 312
236 238 252 244 253 221 230 242 260 286 289 294 288 285 299 310 311 305 307 299 303 307 300 308 299 294 293 296 304 305 308 307 303 299 299 294 300 308 308 310 311 314 314 313 314
239 240 235 248 263 258 267 278 254 270 286 290 281 291 297 295 302 302 307 308 311 302 298 298 293 292 295 300 302 303 305 303 300 297 296 301 300 305 311 310 314 315 314 316 316
239 242 252 253 265 257 269 284 291 275 294 283 293 304 301 292 294 300 304 305 297 300 305 301 297 300 298 298 299 303 303 302 299 298 299 301 303 306 310 314 316 316 315 317 316
248 248 248 260 261 264 266 278 278 284 288 289 293 294 295 291 294 294 295 294 291 292 295 294 296 302 299 308 309 309 309 310 301 306 305 306 311 317 314 315 315 315 311 315 316